Location: Buchloe
(48.0161°N, 10.7316°E)
Time: 08:22:46
(UTC+02:00)

ISS - Pass Details

Date: 21 May 2018
Orbit: 402 x 407 km, 51.6° (Epoch: 26 May)

Event Time Altitude Azimuth Distance (km) Brightness Sun altitude
Rises 22:14:41 0° 220° (SW) 2,307 -0.1 -10.8°
Reaches altitude 10° 22:16:52 10° 210° (SSW) 1,451 -1.2 -11.1°
Maximum altitude 22:19:49 33° 145° (SE) 705 -3.2 -11.4°
Drops below altitude 10° 22:22:48 10° 79° (E) 1,457 -1.3 -11.7°
Sets 22:24:59 0° 70° (ENE) 2,319 -0.2 -11.9°
